,,Stat5,,Stat1,,Stat2,,Stat3,,Stat4,,Wind1,,Wind1,
time,status,PA1M_AVG,status,PR1M_SUM,status,RH1M_AVG,status,SR1M_AVG,status,TA1M_AVG,status,W1dAve1m,status,W1sAve1m,
2003-08-27, 00:00:00,VALID,918.994,VALID,0,VALID,96.1155,VALID,-0.0169808,VALID,20.6374,VALID,276,VALID,0,
2003-08-27, 00:01:00,VALID,919.006,VALID,0,VALID,96.2427,VALID,0,VALID,20.6565,VALID,276,VALID,0,
2003-08-27, 00:02:00,VALID,918.997,VALID,0,VALID,96.4779,VALID,0,VALID,20.6821,VALID,276,VALID,0,
2003-08-27, 00:03:00,VALID,918.979,VALID,0,VALID,96.441,VALID,-0.0339617,VALID,20.7077,VALID,276,VALID,0,
2003-08-27, 00:04:00,VALID,918.942,VALID,0,VALID,96.4207,VALID,-0.0509425,VALID,20.7147,VALID,276,VALID,0,
2003-08-27, 00:05:00,VALID,918.908,VALID,0,VALID,96.408,VALID,-0.0339617,VALID,20.7114,VALID,276,VALID,0,
2003-08-27, 00:06:00,VALID,918.869,VALID,0,VALID,96.5517,VALID,-0.0339617,VALID,20.7179,VALID,276,VALID,0.0209704,
2003-08-27, 00:07:00,VALID,918.838,VALID,0,VALID,96.6521,VALID,-0.0169808,VALID,20.7149,VALID,276,VALID,0.000195313,
2003-08-27, 00:08:00,VALID,918.818,VALID,0,VALID,96.6623,VALID,-0.0339617,VALID,20.6888,VALID,276,VALID,0.0730469,
2003-08-27, 00:09:00,VALID,918.804,VALID,0,VALID,96.7284,VALID,-0.0169808,VALID,20.6597,VALID,276,VALID,0,
2003-08-27, 00:10:00,VALID,918.801,VALID,0,VALID,96.6686,VALID,-0.0339617,VALID,20.628,VALID,278,VALID,0.0164062,
2003-08-27, 00:11:00,VALID,918.794,VALID,0,VALID,96.5173,VALID,0,VALID,20.6021,VALID,350,VALID,0.279772,
2003-08-27, 00:12:00,VALID,918.79,VALID,0,VALID,96.3749,VALID,-0.0339617,VALID,20.5698,VALID,14,VALID,0.389844,
2003-08-27, 00:13:00,VALID,918.777,VALID,0,VALID,96.2249,VALID,0,VALID,20.5211,VALID,28,VALID,0.580128,
2003-08-27, 00:14:00,VALID,918.793,VALID,0,VALID,96.0481,VALID,-0.0509425,VALID,20.4562,VALID,40,VALID,0.995888,
2003-08-27, 00:15:00,VALID,918.793,VALID,0,VALID,96.1943,VALID,-0.0169808,VALID,20.4011,VALID,47,VALID,0.946791,
2003-08-27, 00:16:00,VALID,918.812,VALID,0,VALID,96.4944,VALID,0,VALID,20.3887,VALID,46,VALID,0.633384,
2003-08-27, 00:17:00,VALID,918.816,VALID,0,VALID,96.7399,VALID,-0.0169808,VALID,20.3695,VALID,48,VALID,0.583594,
2003-08-27, 00:18:00,VALID,918.816,VALID,0,VALID,96.8149,VALID,-0.0339617,VALID,20.3273,VALID,55,VALID,0.690972,
2003-08-27, 00:19:00,VALID,918.805,VALID,0,VALID,96.8225,VALID,-0.0169808,VALID,20.2985,VALID,71,VALID,0.762109,
2003-08-27, 00:20:00,VALID,918.801,VALID,0,VALID,96.8111,VALID,-0.0509425,VALID,20.2503,VALID,71,VALID,0.886924,
2003-08-27, 00:21:00,VALID,918.781,VALID,0,VALID,96.9306,VALID,-0.0339617,VALID,20.215,VALID,75,VALID,1.01432,
2003-08-27, 00:22:00,VALID,918.796,VALID,0,VALID,97.0209,VALID,-0.0169808,VALID,20.1695,VALID,85,VALID,0.727764,
2003-08-27, 00:23:00,VALID,918.775,VALID,0,VALID,97.2523,VALID,-0.0679233,VALID,20.1241,VALID,102,VALID,1.01499,
2003-08-27, 00:24:00,VALID,918.755,VALID,0,VALID,97.5575,VALID,-0.0679233,VALID,20.095,VALID,109,VALID,0.789485,
2003-08-27, 00:25:00,VALID,918.751,VALID,0,VALID,97.691,VALID,-0.0509425,VALID,20.089,VALID,118,VALID,0.480469,
2003-08-27, 00:26:00,VALID,918.751,VALID,0,VALID,97.7991,VALID,-0.0849042,VALID,20.0764,VALID,130,VALID,0.823047,
2003-08-27, 00:27:00,VALID,918.728,VALID,0,VALID,98.0331,VALID,-0.0339617,VALID,20.0692,VALID,125,VALID,0.996289,
2003-08-27, 00:28:00,VALID,918.73,VALID,0,VALID,98.0979,VALID,-0.0509425,VALID,20.057,VALID,123,VALID,0.828516,
2003-08-27, 00:29:00,VALID,918.715,VALID,0,VALID,98.2442,VALID,-0.0509425,VALID,20.0307,VALID,131,VALID,0.666466,
2003-08-27, 00:30:00,VALID,918.723,VALID,0,VALID,98.4171,VALID,-0.0509425,VALID,20.0244,VALID,132,VALID,0.605574,
2003-08-27, 00:31:00,VALID,918.716,VALID,0,VALID,98.5188,VALID,-0.0169808,VALID,20.0307,VALID,129,VALID,0.782031,
2003-08-27, 00:32:00,VALID,918.7,VALID,0,VALID,98.6536,VALID,-0.0509425,VALID,20.0175,VALID,117,VALID,0.65625,
2003-08-27, 00:33:00,VALID,918.664,VALID,0,VALID,98.7159,VALID,-0.0339617,VALID,20.0247,VALID,94,VALID,0.442023,
2003-08-27, 00:34:00,VALID,918.652,VALID,0,VALID,98.6854,VALID,-0.0339617,VALID,20.008,VALID,81,VALID,0.479307,
2003-08-27, 00:35:00,VALID,918.615,VALID,0,VALID,98.7159,VALID,-0.0509425,VALID,20.0051,VALID,80,VALID,0.526486,
2003-08-27, 00:36:00,VALID,918.599,VALID,0,VALID,98.7172,VALID,-0.0169808,VALID,20.011,VALID,80,VALID,0.428516,
2003-08-27, 00:37:00,VALID,918.587,VALID,0,VALID,98.7477,VALID,-0.0169808,VALID,20.0011,VALID,90,VALID,0.576172,
2003-08-27, 00:38:00,VALID,918.572,VALID,0,VALID,98.8914,VALID,-0.0169808,VALID,20.0075,VALID,122,VALID,0.880609,
2003-08-27, 00:39:00,VALID,918.576,VALID,0,VALID,99.0287,VALID,-0.0339617,VALID,20.0272,VALID,122,VALID,0.765214,
2003-08-27, 00:40:00,VALID,918.572,VALID,0,VALID,99.0911,VALID,-0.0169808,VALID,20.0533,VALID,123,VALID,0.771537,
2003-08-27, 00:41:00,VALID,918.588,VALID,0,VALID,99.1139,VALID,-0.0169808,VALID,20.0565,VALID,124,VALID,0.50601,
2003-08-27, 00:42:00,VALID,918.585,VALID,0,VALID,99.105,VALID,-0.0169808,VALID,20.0726,VALID,124,VALID,0.445735,
2003-08-27, 00:43:00,VALID,918.572,VALID,0,VALID,99.1114,VALID,-0.0169808,VALID,20.0597,VALID,114,VALID,0.349451,
2003-08-27, 00:44:00,VALID,918.565,VALID,0,VALID,98.9919,VALID,-0.0339617,VALID,20.05,VALID,85,VALID,0.362459,
2003-08-27, 00:45:00,VALID,918.547,VALID,0,VALID,98.9308,VALID,-0.0169808,VALID,20.0376,VALID,74,VALID,0.484375,
2003-08-27, 00:46:00,VALID,918.519,VALID,0,VALID,98.8202,VALID,-0.0169808,VALID,20.0148,VALID,81,VALID,0.596094,
2003-08-27, 00:47:00,VALID,918.517,VALID,0,VALID,98.8762,VALID,-0.0339617,VALID,20.0247,VALID,116,VALID,0.80918,
2003-08-27, 00:48:00,VALID,918.503,VALID,0,VALID,99.0389,VALID,-0.0679233,VALID,20.0376,VALID,133,VALID,0.779492,
2003-08-27, 00:49:00,VALID,918.467,VALID,0,VALID,99.0936,VALID,0,VALID,20.06,VALID,136,VALID,0.618032,
2003-08-27, 00:50:00,VALID,918.439,VALID,0,VALID,99.1991,VALID,-0.0169808,VALID,20.0788,VALID,144,VALID,0.920117,
2003-08-27, 00:51:00,VALID,918.41,VALID,0,VALID,99.2042,VALID,-0.0509425,VALID,20.0885,VALID,143,VALID,0.74399,
2003-08-27, 00:52:00,VALID,918.388,VALID,0,VALID,99.1979,VALID,-0.0169808,VALID,20.092,VALID,157,VALID,0.475535,
2003-08-27, 00:53:00,VALID,918.379,VALID,0,VALID,99.1953,VALID,-0.0679233,VALID,20.096,VALID,152,VALID,0.510769,
2003-08-27, 00:54:00,VALID,918.355,VALID,0,VALID,99.208,VALID,0,VALID,20.0794,VALID,154,VALID,0.477896,
2003-08-27, 00:55:00,VALID,918.339,VALID,0,VALID,99.2347,VALID,-0.0849042,VALID,20.0858,VALID,160,VALID,0.401563,
2003-08-27, 00:56:00,VALID,918.333,VALID,0,VALID,99.2793,VALID,-0.0169808,VALID,20.0888,VALID,149,VALID,0.33572,
2003-08-27, 00:57:00,VALID,918.335,VALID,0,VALID,99.3085,VALID,-0.0339617,VALID,20.0783,VALID,153,VALID,0.1,
2003-08-27, 00:58:00,VALID,918.326,VALID,0,VALID,99.3441,VALID,-0.0339617,VALID,20.095,VALID,78,VALID,0.295847,
2003-08-27, 00:59:00,VALID,918.324,VALID,0,VALID,99.3619,VALID,0,VALID,20.1015,VALID,63,VALID,0.582248,
2003-08-27, 01:00:00,VALID,918.314,VALID,0,VALID,99.4013,VALID,-0.0679233,VALID,20.1087,VALID,51,VALID,0.558093,
2003-08-27, 01:01:00,VALID,918.313,VALID,0,VALID,99.4585,VALID,-0.0509425,VALID,20.1181,VALID,44,VALID,0.256757,
2003-08-27, 01:02:00,VALID,918.314,VALID,0,VALID,99.4814,VALID,-0.0509425,VALID,20.1144,VALID,44,VALID,0,
2003-08-27, 01:03:00,VALID,918.311,VALID,0,VALID,99.5247,VALID,-0.0169808,VALID,20.1308,VALID,44,VALID,0,
2003-08-27, 01:04:00,VALID,918.316,VALID,0,VALID,99.5565,VALID,-0.0339617,VALID,20.1499,VALID,44,VALID,0,
2003-08-27, 01:05:00,VALID,918.319,VALID,0,VALID,99.5374,VALID,-0.0169808,VALID,20.1496,VALID,44,VALID,0.0982422,
2003-08-27, 01:06:00,VALID,918.324,VALID,0,VALID,99.5336,VALID,-0.0339617,VALID,20.1469,VALID,44,VALID,0.0421875,
2003-08-27, 01:07:00,VALID,918.33,VALID,0,VALID,99.5488,VALID,0,VALID,20.1402,VALID,44,VALID,0.160857,
2003-08-27, 01:08:00,VALID,918.333,VALID,0,VALID,99.5323,VALID,-0.0849042,VALID,20.1338,VALID,44,VALID,0.237542,
2003-08-27, 01:09:00,VALID,918.326,VALID,0,VALID,99.409,VALID,-0.0169808,VALID,20.102,VALID,44,VALID,0.356641,
2003-08-27, 01:10:00,VALID,918.323,VALID,0,VALID,99.3123,VALID,-0.0339617,VALID,20.05,VALID,75,VALID,0.490585,
2003-08-27, 01:11:00,VALID,918.311,VALID,0,VALID,99.3161,VALID,-0.0169808,VALID,20.0113,VALID,87,VALID,0.545436,
2003-08-27, 01:12:00,VALID,918.297,VALID,0,VALID,99.3441,VALID,-0.0509425,VALID,19.982,VALID,92,VALID,0.415541,
2003-08-27, 01:13:00,VALID,918.282,VALID,0,VALID,99.3835,VALID,-0.0509425,VALID,19.9564,VALID,93,VALID,0.440739,
2003-08-27, 01:14:00,VALID,918.264,VALID,0,VALID,99.4713,VALID,-0.0679233,VALID,19.9566,VALID,104,VALID,0.389453,
2003-08-27, 01:15:00,VALID,918.259,VALID,0,VALID,99.5336,VALID,-0.0849042,VALID,19.9626,VALID,119,VALID,0.493273,
2003-08-27, 01:16:00,VALID,918.27,VALID,0,VALID,99.5577,VALID,-0.0339617,VALID,19.9526,VALID,135,VALID,0.553886,
2003-08-27, 01:17:00,VALID,918.271,VALID,0,VALID,99.5857,VALID,-0.0339617,VALID,19.9725,VALID,131,VALID,0.5919,
2003-08-27, 01:18:00,VALID,918.252,VALID,0,VALID,99.6251,VALID,-0.0169808,VALID,19.9685,VALID,128,VALID,0.357475,
2003-08-27, 01:19:00,VALID,918.248,VALID,0,VALID,99.6289,VALID,0,VALID,19.9857,VALID,100,VALID,0.267428,
2003-08-27, 01:20:00,VALID,918.229,VALID,0,VALID,99.6328,VALID,-0.0339617,VALID,19.9752,VALID,123,VALID,0.415329,
2003-08-27, 01:21:00,VALID,918.225,VALID,0,VALID,99.6468,VALID,-0.0339617,VALID,19.9921,VALID,100,VALID,0.622255,
2003-08-27, 01:22:00,VALID,918.198,VALID,0,VALID,99.6366,VALID,-0.0679233,VALID,19.982,VALID,106,VALID,0.586143,
2003-08-27, 01:23:00,VALID,918.189,VALID,0,VALID,99.6366,VALID,-0.0679233,VALID,19.9921,VALID,114,VALID,0.422656,
2003-08-27, 01:24:00,VALID,918.163,VALID,0,VALID,99.6455,VALID,0,VALID,20.0021,VALID,120,VALID,0.496289,
2003-08-27, 01:25:00,VALID,918.14,VALID,0,VALID,99.6709,VALID,-0.0509425,VALID,20.0115,VALID,120,VALID,0.425586,
2003-08-27, 01:26:00,VALID,918.11,VALID,0,VALID,99.676,VALID,-0.0509425,VALID,20.0177,VALID,120,VALID,0.132031,
2003-08-27, 01:27:00,VALID,918.077,VALID,0,VALID,99.6709,VALID,-0.0509425,VALID,20.0406,VALID,120,VALID,0.0443412,
2003-08-27, 01:28:00,VALID,918.042,VALID,0,VALID,99.662,VALID,-0.0849042,VALID,20.0371,VALID,120,VALID,0,
2003-08-27, 01:29:00,VALID,918.017,VALID,0,VALID,99.662,VALID,-0.0339617,VALID,20.0602,VALID,120,VALID,0.00120192,
2003-08-27, 01:30:00,VALID,918.002,VALID,0,VALID,99.6607,VALID,-0.0509425,VALID,20.0761,VALID,120,VALID,0.000205592,
2003-08-27, 01:31:00,VALID,918.005,VALID,0,VALID,99.6404,VALID,-0.0509425,VALID,20.0761,VALID,120,VALID,0.295608,
2003-08-27, 01:32:00,VALID,918.011,VALID,0,VALID,99.6137,VALID,-0.0679233,VALID,20.0828,VALID,120,VALID,0.314977,
2003-08-27, 01:33:00,VALID,918.021,VALID,0,VALID,99.5552,VALID,-0.0849042,VALID,20.0694,VALID,133,VALID,0.601953,
2003-08-27, 01:34:00,VALID,918.026,VALID,0,VALID,99.428,VALID,-0.0679233,VALID,20.05,VALID,117,VALID,0.860026,
2003-08-27, 01:35:00,VALID,918.019,VALID,0,VALID,99.3441,VALID,-0.0679233,VALID,20.0277,VALID,108,VALID,0.835352,
2003-08-27, 01:36:00,VALID,918.012,VALID,0,VALID,99.1928,VALID,-0.0509425,VALID,20.0185,VALID,110,VALID,0.931127,
2003-08-27, 01:37:00,VALID,917.982,VALID,0,VALID,99.0237,VALID,-0.0169808,VALID,19.979,VALID,112,VALID,0.691406,
2003-08-27, 01:38:00,VALID,917.935,VALID,0,VALID,98.8838,VALID,-0.0339617,VALID,19.9892,VALID,118,VALID,0.652043,
2003-08-27, 01:39:00,VALID,917.901,VALID,0,VALID,98.7019,VALID,0,VALID,19.9693,VALID,126,VALID,0.820101,
2003-08-27, 01:40:00,VALID,917.878,VALID,0,VALID,98.5443,VALID,-0.0339617,VALID,19.976,VALID,137,VALID,0.771326,
2003-08-27, 01:41:00,VALID,917.854,VALID,0,VALID,98.4222,VALID,0.0169808,VALID,19.9944,VALID,136,VALID,0.465255,
2003-08-27, 01:42:00,VALID,917.871,VALID,0,VALID,98.2772,VALID,0.0169808,VALID,20.0008,VALID,126,VALID,0.62832,
2003-08-27, 01:43:00,VALID,917.869,VALID,0,VALID,98.1908,VALID,0,VALID,19.9909,VALID,114,VALID,0.715234,
2003-08-27, 01:44:00,VALID,917.863,VALID,0,VALID,98.3116,VALID,0,VALID,19.9782,VALID,83,VALID,0.742578,
2003-08-27, 01:45:00,VALID,917.857,VALID,0,VALID,98.3281,VALID,-0.0169808,VALID,19.9817,VALID,71,VALID,0.485377,
2003-08-27, 01:46:00,VALID,917.841,VALID,0,VALID,98.2798,VALID,-0.0169808,VALID,19.969,VALID,71,VALID,0.190456,
2003-08-27, 01:47:00,VALID,917.833,VALID,0,VALID,98.2836,VALID,0,VALID,19.9422,VALID,71,VALID,0.302734,
2003-08-27, 01:48:00,VALID,917.827,VALID,0,VALID,98.3968,VALID,0,VALID,19.9489,VALID,71,VALID,0.441907,
2003-08-27, 01:49:00,VALID,917.824,VALID,0,VALID,98.5265,VALID,-0.0169808,VALID,19.9559,VALID,71,VALID,0.497533,
2003-08-27, 01:50:00,VALID,917.811,VALID,0,VALID,98.646,VALID,0,VALID,19.9554,VALID,80,VALID,0.17462,
2003-08-27, 01:51:00,VALID,917.806,VALID,0,VALID,98.7274,VALID,0,VALID,19.9685,VALID,80,VALID,0.11128,
2003-08-27, 01:52:00,VALID,917.784,VALID,0,VALID,98.8088,VALID,0.0169808,VALID,19.9752,VALID,79,VALID,0.0224609,
2003-08-27, 01:53:00,VALID,917.78,VALID,0,VALID,98.8723,VALID,0,VALID,19.9814,VALID,79,VALID,0.0260417,
2003-08-27, 01:54:00,VALID,917.775,VALID,0,VALID,98.913,VALID,0,VALID,19.9817,VALID,79,VALID,0,
2003-08-27, 01:55:00,VALID,917.785,VALID,0,VALID,98.9258,VALID,0,VALID,19.9981,VALID,79,VALID,0,
2003-08-27, 01:56:00,VALID,917.775,VALID,0,VALID,98.9385,VALID,-0.0169808,VALID,19.9946,VALID,79,VALID,0,
2003-08-27, 01:57:00,VALID,917.788,VALID,0,VALID,98.9118,VALID,0,VALID,19.9844,VALID,79,VALID,0,
2003-08-27, 01:58:00,VALID,917.774,VALID,0,VALID,98.894,VALID,0,VALID,19.9909,VALID,79,VALID,0.0620777,
2003-08-27, 01:59:00,VALID,917.772,VALID,0,VALID,98.8584,VALID,0,VALID,19.968,VALID,79,VALID,0.146537,
2003-08-27, 02:00:00,VALID,917.748,VALID,0,VALID,98.8406,VALID,0,VALID,19.9521,VALID,81,VALID,0.351563,
2003-08-27, 02:01:00,VALID,917.737,VALID,0,VALID,98.866,VALID,0.0169808,VALID,19.9427,VALID,153,VALID,0.490625,
2003-08-27, 02:02:00,VALID,917.735,VALID,0,VALID,98.8723,VALID,0,VALID,19.9298,VALID,157,VALID,0.208398,
2003-08-27, 02:03:00,VALID,917.75,VALID,0,VALID,98.9003,VALID,0,VALID,19.9136,VALID,157,VALID,0,
2003-08-27, 02:04:00,VALID,917.771,VALID,0,VALID,98.9258,VALID,0,VALID,19.8942,VALID,157,VALID,0,
2003-08-27, 02:05:00,VALID,917.776,VALID,0,VALID,98.9448,VALID,0.0169808,VALID,19.8875,VALID,157,VALID,0.130912,
2003-08-27, 02:06:00,VALID,917.775,VALID,0,VALID,98.9525,VALID,0,VALID,19.8749,VALID,94,VALID,0.273633,
2003-08-27, 02:07:00,VALID,917.762,VALID,0,VALID,98.9614,VALID,0,VALID,19.8818,VALID,43,VALID,0.253005,
2003-08-27, 02:08:00,VALID,917.747,VALID,0,VALID,98.9575,VALID,0,VALID,19.8719,VALID,42,VALID,0.238076,
2003-08-27, 02:09:00,VALID,917.726,VALID,0,VALID,98.8622,VALID,0,VALID,19.849,VALID,17,VALID,0.559333,
2003-08-27, 02:10:00,VALID,917.721,VALID,0,VALID,98.866,VALID,0.0169808,VALID,19.8264,VALID,16,VALID,0.115091,
2003-08-27, 02:11:00,VALID,917.715,VALID,0,VALID,98.8622,VALID,0,VALID,19.8269,VALID,16,VALID,0.108984,
2003-08-27, 02:12:00,VALID,917.723,VALID,0,VALID,98.7185,VALID,0.0169808,VALID,19.7904,VALID,16,VALID,0.164497,
2003-08-27, 02:13:00,VALID,917.735,VALID,0,VALID,98.7363,VALID,0,VALID,19.7685,VALID,16,VALID,0.227344,
2003-08-27, 02:14:00,VALID,917.741,VALID,0,VALID,98.7808,VALID,0,VALID,19.7395,VALID,68,VALID,0.317434,
2003-08-27, 02:15:00,VALID,917.742,VALID,0,VALID,98.8444,VALID,0,VALID,19.7236,VALID,137,VALID,0.383681,
2003-08-27, 02:16:00,VALID,917.717,VALID,0,VALID,98.9703,VALID,0,VALID,19.7204,VALID,137,VALID,0.240184,
2003-08-27, 02:17:00,VALID,917.695,VALID,0,VALID,99.0415,VALID,-0.0339617,VALID,19.7233,VALID,137,VALID,0.34924,
2003-08-27, 02:18:00,VALID,917.668,VALID,0,VALID,99.0809,VALID,0,VALID,19.7169,VALID,137,VALID,0.350296,
2003-08-27, 02:19:00,VALID,917.636,VALID,0,VALID,99.1585,VALID,0,VALID,19.7099,VALID,143,VALID,0.27241,
2003-08-27, 02:20:00,VALID,917.614,VALID,0,VALID,99.2246,VALID,-0.0169808,VALID,19.7171,VALID,148,VALID,0.288477,
2003-08-27, 02:21:00,VALID,917.592,VALID,0,VALID,99.2907,VALID,-0.0169808,VALID,19.7233,VALID,148,VALID,0.366602,
2003-08-27, 02:22:00,VALID,917.577,VALID,0,VALID,99.3098,VALID,0,VALID,19.7196,VALID,148,VALID,0.282422,
2003-08-27, 02:23:00,VALID,917.573,VALID,0,VALID,99.3225,VALID,-0.0169808,VALID,19.7335,VALID,148,VALID,0.0452724,
2003-08-27, 02:24:00,VALID,917.579,VALID,0,VALID,99.3479,VALID,0,VALID,19.7397,VALID,148,VALID,0.000844595,
2003-08-27, 02:25:00,VALID,917.573,VALID,0,VALID,99.3009,VALID,0,VALID,19.7201,VALID,148,VALID,0,
2003-08-27, 02:26:00,VALID,917.566,VALID,0,VALID,99.2169,VALID,0,VALID,19.6977,VALID,148,VALID,0,
2003-08-27, 02:27:00,VALID,917.567,VALID,0,VALID,99.1267,VALID,0,VALID,19.6458,VALID,148,VALID,0.109786,
2003-08-27, 02:28:00,VALID,917.567,VALID,0,VALID,99.0287,VALID,0.0169808,VALID,19.6101,VALID,57,VALID,0.497889,
2003-08-27, 02:29:00,VALID,917.593,VALID,0,VALID,98.8851,VALID,-0.0169808,VALID,19.5557,VALID,31,VALID,0.849466,
2003-08-27, 02:30:00,VALID,917.612,VALID,0,VALID,98.6892,VALID,-0.0169808,VALID,19.5037,VALID,29,VALID,1.12324,
2003-08-27, 02:31:00,VALID,917.633,VALID,0,VALID,98.7732,VALID,0,VALID,19.4719,VALID,27,VALID,1.22504,
2003-08-27, 02:32:00,VALID,917.642,VALID,0,VALID,98.8762,VALID,0,VALID,19.4392,VALID,29,VALID,1.08253,
2003-08-27, 02:33:00,VALID,917.652,VALID,0,VALID,99.0275,VALID,0,VALID,19.4394,VALID,27,VALID,1.09087,
2003-08-27, 02:34:00,VALID,917.642,VALID,0,VALID,99.1902,VALID,0,VALID,19.4392,VALID,35,VALID,0.759502,
2003-08-27, 02:35:00,VALID,917.63,VALID,0,VALID,99.2627,VALID,0,VALID,19.4325,VALID,34,VALID,0.650441,
2003-08-27, 02:36:00,VALID,917.614,VALID,0,VALID,99.353,VALID,0,VALID,19.4329,VALID,36,VALID,0.408784,
2003-08-27, 02:37:00,VALID,917.599,VALID,0,VALID,99.4191,VALID,0,VALID,19.4394,VALID,36,VALID,0.28484,
2003-08-27, 02:38:00,VALID,917.578,VALID,0,VALID,99.4725,VALID,0,VALID,19.4424,VALID,36,VALID,0.295436,
2003-08-27, 02:39:00,VALID,917.57,VALID,0,VALID,99.4827,VALID,0,VALID,19.4461,VALID,36,VALID,0.371094,
2003-08-27, 02:40:00,VALID,917.561,VALID,0,VALID,99.5069,VALID,0,VALID,19.4396,VALID,36,VALID,0.25332,
2003-08-27, 02:41:00,VALID,917.531,VALID,0,VALID,99.5196,VALID,0.0169808,VALID,19.429,VALID,36,VALID,0.0511719,
2003-08-27, 02:42:00,VALID,917.509,VALID,0,VALID,99.5577,VALID,0.0169808,VALID,19.432,VALID,36,VALID,0,
2003-08-27, 02:43:00,VALID,917.486,VALID,0,VALID,99.5972,VALID,0.0339617,VALID,19.4451,VALID,36,VALID,0,
2003-08-27, 02:44:00,VALID,917.463,VALID,0,VALID,99.6188,VALID,0.0339617,VALID,19.4521,VALID,36,VALID,0.0181641,
2003-08-27, 02:45:00,VALID,917.459,VALID,0,VALID,99.5501,VALID,0.0339617,VALID,19.4488,VALID,38,VALID,0.396234,
2003-08-27, 02:46:00,VALID,917.456,VALID,0,VALID,99.5272,VALID,0.0169808,VALID,19.4267,VALID,73,VALID,0.570518,
2003-08-27, 02:47:00,VALID,917.446,VALID,0,VALID,99.5616,VALID,0.0339617,VALID,19.4195,VALID,88,VALID,0.587416,
2003-08-27, 02:48:00,VALID,917.434,VALID,0,VALID,99.615,VALID,0.0169808,VALID,19.4034,VALID,90,VALID,0.666921,
2003-08-27, 02:49:00,VALID,917.429,VALID,0,VALID,99.5717,VALID,0.0509425,VALID,19.4039,VALID,94,VALID,0.436719,
2003-08-27, 02:50:00,VALID,917.431,VALID,0,VALID,99.6073,VALID,0,VALID,19.3748,VALID,117,VALID,0.601563,
2003-08-27, 02:51:00,VALID,917.422,VALID,0,VALID,99.6646,VALID,0,VALID,19.381,VALID,114,VALID,0.534375,
2003-08-27, 02:52:00,VALID,917.408,VALID,0,VALID,99.7014,VALID,0.0169808,VALID,19.3877,VALID,122,VALID,0.722039,
2003-08-27, 02:53:00,VALID,917.393,VALID,0,VALID,99.7332,VALID,0,VALID,19.3905,VALID,123,VALID,0.855035,
2003-08-27, 02:54:00,VALID,917.39,VALID,0,VALID,99.779,VALID,0.0509425,VALID,19.4133,VALID,126,VALID,0.838141,
2003-08-27, 02:55:00,VALID,917.368,VALID,0,VALID,99.8362,VALID,0.0679233,VALID,19.4463,VALID,123,VALID,1.00486,
2003-08-27, 02:56:00,VALID,917.36,VALID,0,VALID,99.8858,VALID,-0.0339617,VALID,19.4757,VALID,130,VALID,0.888514,
2003-08-27, 02:57:00,VALID,917.341,VALID,0,VALID,99.9074,VALID,-0.0509425,VALID,19.4988,VALID,127,VALID,0.563117,
2003-08-27, 02:58:00,VALID,917.333,VALID,0,VALID,99.9112,VALID,-0.0849042,VALID,19.502,VALID,130,VALID,0.806055,
2003-08-27, 02:59:00,VALID,917.317,VALID,0,VALID,99.9201,VALID,-0.101885,VALID,19.5084,VALID,117,VALID,0.769141,
2003-08-27, 03:00:00,VALID,917.322,VALID,0,VALID,99.924,VALID,-0.101885,VALID,19.5087,VALID,112,VALID,0.666016,
2003-08-27, 03:01:00,VALID,917.315,VALID,0,VALID,99.9341,VALID,-0.0679233,VALID,19.5122,VALID,130,VALID,0.583534,
2003-08-27, 03:02:00,VALID,917.309,VALID,0,VALID,99.9456,VALID,-0.0339617,VALID,19.5119,VALID,126,VALID,0.656461,
2003-08-27, 03:03:00,VALID,917.297,VALID,0,VALID,99.9468,VALID,-0.0679233,VALID,19.5119,VALID,121,VALID,0.752344,
2003-08-27, 03:04:00,VALID,917.298,VALID,0,VALID,99.9621,VALID,-0.0509425,VALID,19.5214,VALID,127,VALID,0.88101,
2003-08-27, 03:05:00,VALID,917.279,VALID,0,VALID,99.9723,VALID,-0.101885,VALID,19.5276,VALID,112,VALID,1.08512,
2003-08-27, 03:06:00,VALID,917.279,VALID,0,VALID,99.9748,VALID,-0.0849042,VALID,19.5281,VALID,109,VALID,0.786951,
2003-08-27, 03:07:00,VALID,917.273,VALID,0,VALID,99.987,VALID,-0.0849042,VALID,19.5313,VALID,129,VALID,1.0907,
2003-08-27, 03:08:00,VALID,917.268,VALID,0,VALID,99.9957,VALID,-0.0849042,VALID,19.541,VALID,110,VALID,0.832617,
2003-08-27, 03:09:00,VALID,917.268,VALID,0,VALID,99.9957,VALID,-0.0849042,VALID,19.534,VALID,126,VALID,0.888889,
2003-08-27, 03:10:00,VALID,917.275,VALID,0,VALID,100,VALID,-0.0679233,VALID,19.5504,VALID,104,VALID,0.826522,
2003-08-27, 03:11:00,VALID,917.282,VALID,0,VALID,99.998,VALID,-0.0849042,VALID,19.5504,VALID,102,VALID,0.555715,
2003-08-27, 03:12:00,VALID,917.284,VALID,0,VALID,100,VALID,-0.0509425,VALID,19.5569,VALID,110,VALID,0.794341,
2003-08-27, 03:13:00,VALID,917.284,VALID,0,VALID,100,VALID,-0.101885,VALID,19.5735,VALID,116,VALID,1.01943,
2003-08-27, 03:14:00,VALID,917.273,VALID,0,VALID,100,VALID,-0.0849042,VALID,19.5666,VALID,85,VALID,0.0926943,
2003-08-27, 03:15:00,VALID,917.261,VALID,0,VALID,100,VALID,-0.0679233,VALID,19.5728,VALID,88,VALID,0.495144,
2003-08-27, 03:16:00,VALID,917.241,VALID,0,VALID,100,VALID,-0.0849042,VALID,19.5792,VALID,121,VALID,0.746299,
2003-08-27, 03:17:00,VALID,917.24,VALID,0,VALID,100,VALID,-0.0849042,VALID,19.5862,VALID,79,VALID,0.805078,
2003-08-27, 03:18:00,VALID,917.227,VALID,0,VALID,100,VALID,-0.101885,VALID,19.57,VALID,69,VALID,0.661523,
2003-08-27, 03:19:00,VALID,917.226,VALID,0,VALID,100,VALID,-0.0849042,VALID,19.5671,VALID,68,VALID,1.00234,
2003-08-27, 03:20:00,VALID,917.21,VALID,0,VALID,100,VALID,-0.0849042,VALID,19.5708,VALID,62,VALID,0.811328,
2003-08-27, 03:21:00,VALID,917.199,VALID,0,VALID,100,VALID,-0.0849042,VALID,19.5539,VALID,76,VALID,0.684333,
2003-08-27, 03:22:00,VALID,917.178,VALID,0,VALID,100,VALID,-0.0849042,VALID,19.5509,VALID,70,VALID,0.633594,
2003-08-27, 03:23:00,VALID,917.161,VALID,0,VALID,100,VALID,-0.0679233,VALID,19.5343,VALID,82,VALID,0.757412,
2003-08-27, 03:24:00,VALID,917.15,VALID,0,VALID,100,VALID,-0.0509425,VALID,19.5119,VALID,85,VALID,0.736842,
2003-08-27, 03:25:00,VALID,917.144,VALID,0,VALID,100,VALID,-0.101885,VALID,19.4985,VALID,117,VALID,0.758868,
2003-08-27, 03:26:00,VALID,917.153,VALID,0,VALID,100,VALID,0,VALID,19.4945,VALID,111,VALID,0.669779,
2003-08-27, 03:27:00,VALID,917.139,VALID,0,VALID,100,VALID,0.0169808,VALID,19.4876,VALID,98,VALID,0.430664,
2003-08-27, 03:28:00,VALID,917.128,VALID,0,VALID,100,VALID,0.0339617,VALID,19.4978,VALID,107,VALID,0.683377,
2003-08-27, 03:29:00,VALID,917.105,VALID,0,VALID,100,VALID,0.0339617,VALID,19.4943,VALID,113,VALID,0.774219,
2003-08-27, 03:30:00,VALID,917.096,VALID,0,VALID,100,VALID,0,VALID,19.4973,VALID,99,VALID,0.700247,
2003-08-27, 03:31:00,VALID,917.083,VALID,0,VALID,100,VALID,0.0339617,VALID,19.4906,VALID,74,VALID,0.745226,
2003-08-27, 03:32:00,VALID,917.084,VALID,0,VALID,100,VALID,0.0679233,VALID,19.4876,VALID,79,VALID,1.08734,
2003-08-27, 03:33:00,VALID,917.081,VALID,0,VALID,100,VALID,0.0169808,VALID,19.4747,VALID,60,VALID,0.768792,
2003-08-27, 03:34:00,VALID,917.099,VALID,0,VALID,100,VALID,0.0339617,VALID,19.4585,VALID,60,VALID,0.920397,
2003-08-27, 03:35:00,VALID,917.097,VALID,0,VALID,100,VALID,0.0339617,VALID,19.4551,VALID,53,VALID,0.743215,
2003-08-27, 03:36:00,VALID,917.092,VALID,0,VALID,100,VALID,0.0339617,VALID,19.4451,VALID,53,VALID,0.589844,